Showing default

GEESAT 2-04, 58908

Orbit data source: Space-Track

GEESAT 2-04, 58908 is a payload satellite owned by GeeSpace (CN) in LEO that was launched on Fri, 02 Feb 2024 UTC via a CHANG ZHENG 2C launch vehicle from the Xichang Space Center, China (XSC). Payload-class satellites include a variety of spacecraft equipped with specific instruments for various scientific and technological missions. These include communications satellites like Starlink; space stations such as the ISS; scientific satellites like the Hubble; Earth observation satellites from companies like Planet Labs, Umbra, and HawkEye 360; GPS; miniature CubeSats for education and research; and military/defense satellites.

Loading next visibility...
Identifier
58908, 2024-023D
Orbit
LEO
Country
Flag of CNCN / PRC
Related business
Manufacturer
Taizhou Xingkong
Mission
Operational Commercial Navigation
Bus & Motor
GEESAT1, Unknown motor
Mass
130 kg wet, 130 kg dry
Launch date (UTC)
2024-02-02 (2 years ago)
Launch vehicle
CHANG ZHENG 2C
Launch site
Xichang Space Center, China (XSC)
Object type
Payload
Rocket body
Debris
Shape & HBR
Box + 2 Pan, 1.0 m
Radar Cross Section
0.833 m², Medium (>0.1 m² and < 1m²)

Expand to show TLE details & history
Last TLE update: 18 hours ago

TLE from 18 hours ago
0 GEESAT 2-04
1 58908U 24023D   25249.33174109  .00003268  00000-0  31611-3 0  9995
2 58908  49.9903 225.2257 0006806   6.2135 353.8891 14.95239216 86821
Epoch: 2025-09-06T07:57Z
TLE epoch observation values (Epoch: 2025-09-06T07:57:42.43Z)
Latitude
-0.00003°
Longitude
120.13179°
Altitude
577.467 km
Speed
7.576 km/s
True Right ascension
15h 00m 54s
True Declination
0° 00' 00"
Sunlit
Object was in daylight at epoch
Visualization orbit readout
Latitude
Unknown
Longitude
Unknown
Altitude
Unknown
Speed
Unknown
Apparent Right ascension
Unknown
Apparent Declination
Unknown
Sunlit
N/A
Visualization observer readout
Local Sidereal Time
18:02:04
Azimuth
Unknown
Elevation
Unknown
Doppler factor
Unknown
Orbital elements
Apogee altitude
587.131 km
Perigee altitude
577.657 km
Semi-major axis
6,960.531 km
Eccentricity
0.00068
Inclination
49.9903°
RAAN
225.2257°
Arg. of periapsis
6.2135°
True anomaly
353.88079°
Mean anomaly
353.8891°
Eccentric anomaly
353.88495°
Mean motion
3.73749 °/min
Orbital period
96.32 mins
BSTAR
0.00031611
Loading maneuver chart data...
Computing Atmospheric mass density...
Loading historical data...
Loading historical data...
Loading historical data...
Loading historical data...
Loading historical data...
Loading historical data...
Loading historical data...

Documentation

Showing up to 5 results
|